Weather in Ornos

Greece     37°25′31″N   25°19′22″E
temp.,
°C
wind,
m/s
gust,
m/s
humid.,
%
clouds,
%
prec.,
mm/h
press.,
hPa
HPBL,
m
18 april, sun
sun1800:00+16ne3487100 0.0 1011115
03:00+16ne2387100 0.1 101238
06:00+16nne2287100 0.0 101133
09:00+17nw1283100 0.0 101354
12:00+18s3379100 0.0 101490
15:00+18sse2378100 0.1 101352
18:00+18ssw4676100 0.0 1014150
21:00+18sw5979100 0.0 1015223
19 april, mon
mon1900:00+18ssw5876100 0.3 1014135
03:00+17sw4781100 0.8 1012136
06:00+16wsw3488100 0.4 101168
09:00+16wsw61189100 0.7 1012382
12:00+15sw61088100 1.8 1012662
15:00+16sw91380100 1.9 1011521
18:00+17sw1012704 0.0 1010436
21:00+16wsw1013720 0.0 1010349
20 april, tue
tue2000:00+15w913650 0.0 1011543
03:00+15w911680 0.0 1011867
06:00+15w811650 0.0 1012806
09:00+15w78610 0.0 1014792
12:00+16w45600 0.0 1015715
15:00+16w44595 0.0 1016595
18:00+16sw33563 0.0 1015429
21:00+16sw33680 0.0 1016171
21 april, wed
wed2100:00+15s34780 0.0 1017198
03:00+15s33763 0.0 1017186
06:00+15wsw12745 0.0 101783
09:00+16nw22653 0.0 1018196
12:00+16nnw12574 0.0 1019445
15:00+17nne2259100 0.0 1019581
18:00+16ne016156 0.0 1019433
21:00+16wsw33680 0.0 1020129
22 april, thu
thu2200:00+15w3369100 0.0 1020174
03:00+15wnw226883 0.0 1020103
06:00+15nnw116727 0.0 102057
09:00+16ne12645 0.0 1021150
12:00+17ne225872 0.0 1022360
15:00+17e11535 0.0 1022431
18:00+17ne01535 0.0 1021326
21:00+16sw116594 0.0 102127